TimeEDT,TemperatureF,Dew PointF,Humidity,Sea Level PressureIn,VisibilityMPH,Wind Direction,Wind SpeedMPH,Gust SpeedMPH,PrecipitationIn,Events,Conditions,WindDirDegrees,DateUTC
12:53 AM,61.0,57.0,87,30.13,7.0,South,5.8,-,N/A,,Overcast,180,2013-10-13 04:53:00
1:53 AM,61.0,57.0,87,30.14,6.0,SSW,5.8,-,N/A,,Mostly Cloudy,200,2013-10-13 05:53:00
2:53 AM,60.1,57.0,90,30.15,6.0,South,4.6,-,N/A,,Overcast,190,2013-10-13 06:53:00
3:53 AM,60.1,57.0,90,30.16,5.0,South,4.6,-,N/A,,Overcast,190,2013-10-13 07:53:00
4:53 AM,60.1,55.9,86,30.18,5.0,West,3.5,-,N/A,,Mostly Cloudy,260,2013-10-13 08:53:00
5:53 AM,57.9,55.9,93,30.19,4.0,Calm,Calm,-,N/A,,Mostly Cloudy,0,2013-10-13 09:53:00
6:53 AM,57.0,55.0,93,30.22,3.0,West,3.5,-,N/A,,Partly Cloudy,280,2013-10-13 10:53:00
7:35 AM,53.6,51.8,94,30.22,2.0,Calm,Calm,-,N/A,,Clear,0,2013-10-13 11:35:00
7:53 AM,53.1,52.0,96,30.23,1.8,Calm,Calm,-,N/A,,Clear,0,2013-10-13 11:53:00
8:02 AM,53.6,51.8,94,30.23,2.0,Calm,Calm,-,N/A,,Clear,0,2013-10-13 12:02:00
8:04 AM,53.6,51.8,94,30.23,1.0,Calm,Calm,-,N/A,,Clear,0,2013-10-13 12:04:00
8:11 AM,53.6,51.8,94,30.23,0.5,Calm,Calm,-,N/A,Fog,Fog,0,2013-10-13 12:11:00
8:18 AM,53.6,53.6,100,30.23,1.2,Calm,Calm,-,N/A,,Clear,0,2013-10-13 12:18:00
8:32 AM,55.4,53.6,94,30.24,2.0,NW,4.6,-,N/A,,Partly Cloudy,320,2013-10-13 12:32:00
8:40 AM,55.4,55.4,100,30.24,1.8,NW,4.6,-,N/A,,Mostly Cloudy,320,2013-10-13 12:40:00
8:50 AM,57.2,55.4,94,30.24,2.0,NW,6.9,-,N/A,,Mostly Cloudy,320,2013-10-13 12:50:00
8:53 AM,57.9,55.9,93,30.24,2.5,NW,6.9,-,N/A,,Mostly Cloudy,320,2013-10-13 12:53:00
9:23 AM,60.8,57.2,88,30.25,3.0,NNW,8.1,-,N/A,,Overcast,340,2013-10-13 13:23:00
9:45 AM,60.8,57.2,88,30.26,4.0,NNW,9.2,-,N/A,,Overcast,340,2013-10-13 13:45:00
9:53 AM,61.0,57.9,90,30.27,4.0,North,9.2,-,N/A,,Overcast,350,2013-10-13 13:53:00
10:53 AM,62.1,57.0,84,30.28,5.0,North,10.4,-,N/A,,Haze,360,2013-10-13 14:53:00
11:51 AM,62.6,55.4,77,30.29,6.0,North,9.2,-,N/A,,Haze,350,2013-10-13 15:51:00
11:53 AM,63.0,55.9,78,30.29,6.0,NNW,10.4,-,N/A,,Haze,340,2013-10-13 15:53:00
12:53 PM,64.0,55.9,75,30.29,6.0,North,9.2,-,N/A,,Haze,360,2013-10-13 16:53:00
1:53 PM,63.0,52.0,67,30.29,9.0,North,10.4,-,N/A,,Overcast,350,2013-10-13 17:53:00
2:53 PM,63.0,53.1,70,30.28,8.0,North,10.4,-,N/A,,Overcast,10,2013-10-13 18:53:00
3:35 PM,64.4,51.8,64,30.28,10.0,NE,8.1,-,N/A,,Overcast,50,2013-10-13 19:35:00
3:53 PM,66.0,52.0,60,30.27,10.0,NNE,9.2,-,N/A,,Overcast,30,2013-10-13 19:53:00
4:53 PM,66.9,50.0,54,30.27,10.0,NE,5.8,-,N/A,,Clear,40,2013-10-13 20:53:00
5:53 PM,64.9,51.1,61,30.27,10.0,ENE,6.9,-,N/A,,Clear,60,2013-10-13 21:53:00
6:53 PM,59.0,48.9,69,30.28,10.0,ENE,4.6,-,N/A,,Clear,70,2013-10-13 22:53:00
7:53 PM,54.0,46.9,77,30.30,10.0,ENE,5.8,-,N/A,,Clear,60,2013-10-13 23:53:00
8:53 PM,52.0,46.9,83,30.31,10.0,NE,4.6,-,N/A,,Clear,50,2013-10-14 00:53:00
9:53 PM,51.1,48.0,89,30.32,9.0,Calm,Calm,-,N/A,,Clear,0,2013-10-14 01:53:00
10:53 PM,48.0,45.0,89,30.32,8.0,Calm,Calm,-,N/A,,Clear,0,2013-10-14 02:53:00
11:53 PM,46.0,44.1,93,30.33,8.0,Calm,Calm,-,N/A,,Clear,0,2013-10-14 03:53:00